Torna al catalogo

SRH1

AttivoScienzaPO
NORAD 58644·PAYLOAD·🇩🇪 Germany

Lanciato Dec 24, 2023 da Vandenberg Space Force Base

Loading…

Prossimi Passaggi (prossime 24 ore)

TLE

In scadenzaSource: Mike McCants

Epoca: Sep 3, 2026, 20:03 UTC

1 58644U 23204B   26246.83577821 0.00000000  00000-0  00000-0 0    02
2 58644  88.1931 117.8236 0002207 144.5487 215.4512 15.20486858    08

Traccia SRH1 in tempo reale con AllMySat

Download on the App Store